User: anonymous   Login
Location: Aciu?a
(46.2833°N, 22.4500°E)
Time: 05:39:48
(UTC+00:00)
Language:

Cosmos 2344 - Orbit

View from above orbital plane
View from above orbital plane
View from above satellite
View from above satellite

Ground track
Ground track

The orbit data is extracted from the following two-line orbital elements,

1 24827U 97028A   22021.41230044 -.00000210  00000-0 -19341-2 0  9999
2 24827  63.3181  20.7971 1046056  49.0108  51.0232 11.07946635996411
Epoch (UTC): 21 January 2022 09:53:42
Eccentricity: 0.1046056
inclination: 63.3181°
perigee height: 1232 km
apogee height: 3010 km
right ascension of ascending node: 20.7971°
argument of perigee: 49.0108°
revolutions per day: 11.07946635
mean anomaly at epoch: 51.0232°
orbit number at epoch: 99641

The dashed part of the orbit path shows where the satellite is in the earth's shadow,  

DLR